Location: Brede
(50.9167°N, 0.6000°E)
Time: 09:02:22
(UTC+00:00)

Tiros 1 - Pass Details

Date: 04 December 2020
Orbit: 630 x 663 km, 48.4° (Epoch: 16 January)

Event Time Altitude Azimuth Distance (km) Brightness Sun altitude
Rises 17:18:38 0° 276° (W) 2,996 11.8 -12.7°
Reaches altitude 10° 17:21:02 10° 271° (W) 2,080 10.9 -13.1°
Maximum altitude 17:25:42 52° 196° (SSW) 823 7.9 -13.8°
Enters shadow 17:30:15 10° 121° (ESE) 2,038 9.3 -14.5°
